Yatton Keynell, United Kingdom

4:35 PM BST on April 19, 2019 (GMT +0100)
Yatton Keynell

Weather History for 03740 - July, 2016

Change the Weather History Date:

Saturday, July 23, 2016

  Actual Average Record
Temperature  
Mean Temperature 66 °F -  
Max Temperature 74 °F 68 °F - ()
Min Temperature 57 °F 53 °F - ()
Growing Degree Days 16 (Base 50)    
Moisture  
Dew Point 58 °F    
Average Humidity 77    
Maximum Humidity 100    
Minimum Humidity 51    
Precipitation  
Precipitation 0.00 in 0.08 in - ()
Sea Level Pressure  
Sea Level Pressure 30.14 in    
Wind  
Wind Speed 5 mph ()    
Max Wind Speed 12 mph    
Max Gust Speed -    
T = Trace of Precipitation, MM = Missing Value Source: Averaged Metar Reports

Daily Weather History Graph

Daily Weather History Graph

Search for Another Location

Airport or City:

Astronomy

Jul. 23, 2016 Rise Set
Actual Time 5:19 AM BST 9:08 PM BST
Civil Twilight 4:36 AM BST 9:51 PM BST
Nautical Twilight 3:36 AM BST 10:50 PM BST
Astronomical Twilight 1:52 AM BST 12:29 AM BST
Moon 10:50 PM BST (7/23) 9:28 AM BST (7/23)
Length of Visible Light 17h 14m
Length of Day
15h 49m
Waning Gibbous, 86% of the Moon is Illuminated
Jul 23
Waning Gibbous
Jul 27
Last Quarter
Aug 2
New
Aug 10
First Quarter
Aug 18
Full

Hourly Weather History & Observations

Time (BST) Temp. Dew Point Humidity Pressure Visibility Wind Dir Wind Speed Gust Speed Precip Events Conditions
12:00 AM 64 °F 59 °F 78% 30.13 in - WSW 4.6 mph - -   Scattered Clouds
1:00 AM 63 °F 59 °F 81% 30.14 in - WSW 4.6 mph - -  
2:00 AM 61 °F 58 °F 85% 30.14 in - West 4.6 mph - -  
3:00 AM 59 °F 57 °F 90% 30.14 in - West 3.5 mph - -  
4:00 AM 58 °F 57 °F 96% 30.13 in - NW 2.3 mph - -  
5:00 AM 58 °F 57 °F 95% 30.13 in - SW 3.5 mph - -  
6:00 AM 57 °F 57 °F 100% 30.14 in - WSW 4.6 mph - -   Scattered Clouds
7:00 AM 59 °F 59 °F 100% 30.14 in - West 4.6 mph - -  
8:00 AM 59 °F 59 °F 100% 30.15 in - SW 3.5 mph - -   Overcast
9:00 AM 61 °F 61 °F 99% 30.15 in - SW 2.3 mph - -  
10:00 AM 62 °F 61 °F 96% 30.15 in - West 5.8 mph - -   Overcast
11:00 AM 65 °F 61 °F 83% 30.16 in - West 5.8 mph - -   Overcast
12:00 PM 69 °F 62 °F 71% 30.15 in - SW 5.8 mph - -   Scattered Clouds
1:00 PM 70 °F 59 °F 61% 30.15 in - West 8.1 mph - -   Partly Cloudy
2:00 PM 72 °F 59 °F 55% 30.14 in - WSW 5.8 mph - -   Partly Cloudy
3:00 PM 72 °F 60 °F 58% 30.13 in - WSW 6.9 mph - -   Partly Cloudy
4:00 PM 73 °F 60 °F 56% 30.12 in - West 6.9 mph - -   Scattered Clouds
5:00 PM 72 °F 59 °F 55% 30.11 in - West 10.4 mph - -   Mostly Cloudy
6:00 PM 72 °F 58 °F 51% 30.12 in - West 11.5 mph - -   Scattered Clouds
7:00 PM 70 °F 57 °F 54% 30.12 in - West 10.4 mph - -  
8:00 PM 67 °F 55 °F 57% 30.12 in - West 8.1 mph - -   Scattered Clouds
9:00 PM 63 °F 55 °F 69% 30.14 in - West 5.8 mph - -   Scattered Clouds
10:00 PM 61 °F 54 °F 71% 30.15 in - WSW 4.6 mph - -   Scattered Clouds
11:00 PM 60 °F 54 °F 76% 30.15 in - WSW 4.6 mph - -   Scattered Clouds